SCP
0 0 0 0 -0 -0 -0 -0 -0 -0 0 0 0 0 0 0 -0 0 0 0 -0 0 0 0 0 0 0 0 0 0 0 0 -0 0 0 -0 -0 -0 -0 -0 -0 0 0
0 0 0 0 0 -0 -0 -0 0 0 0 0 0 0 0 0 -0 -0 0 0 0 0 0 0 0 -0 -0 -0 -0 -0 0 0 0 -0 -0 -0 -0 -0 -0 -0 0 0 0
0 0 0 0 0 0 0 -0 0 0 0 0 0 0 0 0 0 0 -0 0 0 0 0 0 0 -0 0 -0 -0 -0 -0 -0 -0 -0 -0 -0 -0 -0 0 0 0 0 0
0 0 0 0 0 0 0 0 0 0 0 0 0 0 0 0 0 0 0 -0 0 0 0 0 0 0 0 0 0 0 -0 -0 -0 -0 -0 -0 -0 0 0 -0 0 0 0
0 0 0 0 0 0 0 0 0 0 0 0 0 0 0 0 0 0 0 0 0 0 0 0 0 0 0 0 -0 0 0 0 0 0 0 0 0 0 0 0 0 -0 -0
0 0 0 0 0 0 0 0 0 0 0 0 0 0 0 0 0 0 0 0 0 0 0 0 0 0 0 0 0 0 0 0 0 0 0 0 0 0 -0 -0 -0 0 -0
0 0 0 0 0 0 0 0 0 0 0 0 0 0 0 0 0 0 -0 0 -0 -0 0 0 0 0 0 0 0 0 0 0 0 0 0 0 0 0 0 0 0 0 0
0 0 0 0 0 0 0 0 0 0 0 0 0 0 0 0 0 0 0 0 0 0 0 0 0 0 0 0 0 0 0 0 0 0 0 0 0 0 0 0 0 0 0
0 0 0 0 0 0 0 0 0 0 0 0 0 0 0 0 0 0 0 0 0 0 0 0 0 0 0 0 0 0 0 0 1 0 0 0 0 0 0 0 0 0 0
0 0 0 0 0 0 0 0 0 0 0 0 0 0 0 0 0 0 0 0 0 0 0 0 0 0 0 0 0 0 0 0 0 0 1 0 0 0 0 0 0 0 0
0 0 0 0 0 0 0 0 0 0 0 0 0 0 0 0 0 0 0 0 0 0 0 0 0 0 0 0 0 0 0 0 0 0 0 0 1 1 0 0 0 0 1
0 0 0 0 0 0 0 0 0 0 0 0 0 0 0 0 0 0 0 0 0 0 0 0 0 0 0 0 0 -0 0 0 0 0 0 0 0 0 1 1 1 0 0
0 0 0 0 0 0 0 0 0 0 0 0 0 0 0 0 0 0 0 0 0 0 0 0 0 0 0 0 0 0 0 0 0 0 0 0 0 0 0 1 1 1 1
0 0 0 0 0 0 0 0 0 0 0 0 0 0 0 0 0 0 0 0 0 0 0 0 0 0 0 0 0 0 0 0 0 0 0 0 0 0 0 0 0 0 1
0 0 0 0 0 0 0 0 0 0 0 0 0 0 0 0 0 0 0 0 0 0 0 0 0 0 0 0 0 0 0 0 0 0 0 0 0 0 0 0 0 0 0
0 0 0 0 0 0 0 0 0 0 0 0 0 0 0 0 0 0 0 0 0 0 0 0 0 0 0 0 0 0 0 0 0 0 0 0 0 0 0 0 0 1 1
0 0 0 0 0 0 0 0 0 0 0 0 0 0 0 0 0 0 0 0 0 -0 -0 0 0 0 0 0 0 0 0 0 0 0 0 0 0 0 0 1 1 1 1
0 0 0 0 0 0 0 0 0 0 0 0 0 0 0 0 0 0 0 -0 -0 0 0 0 0 0 0 0 0 0 0 0 0 0 0 0 0 0 0 0 0 0 0
0 0 0 0 0 0 0 0 0 0 0 0 0 0 0 0 0 0 0 0 0 0 0 0 0 0 0 0 0 0 0 0 0 0 0 0 0 0 0 0 0 0 0
0 0 0 0 0 0 0 0 0 0 0 0 0 0 0 0 0 0 0 0 0 0 0 0 0 0 0 0 0 0 0 0 0 0 0 0 0 0 0 0 0 0 0
0 0 0 0 0 0 0 0 0 0 0 0 0 0 0 -0 -0 -0 -0 -0 0 0 0 0 0 0 0 0 0 0 0 0 0 0 0 0 0 0 0 0 0 0 0
0 0 0 0 0 0 0 0 -0 -0 -0 -0 -0 -0 -0 -0 -0 -0 -0 -0 0 0 0 0 0 0 0 0 0 0 0 0 0 0 0 0 0 0 0 0 0 0 0
0 0 0 0 0 -0 0 -0 -0 -0 -0 -0 -0 -0 -0 -0 -0 -0 0 0 0 0 0 0 0 0 0 0 0 0 0 0 0 0 0 0 0 0 0 0 0 0 0
0 0 0 0 0 0 -0 -0 -0 -0 -0 -0 -0 -0 -0 -0 0 0 0 0 0 0 0 0 0 0 0 0 0 0 0 0 -0 0 0 0 0 0 0 0 0 0 0
0 0 0 0 0 0 0 -0 -0 -0 -0 -0 -0 -0 -0 -0 -0 0 0 0 0 0 0 0 0 0 0 0 0 0 0 0 0 0 0 0 0 0 0 0 0 0 0
0 0 0 0 0 0 0 0 0 -0 0 0 -0 -0 0 0 0 0 0 0 0 0 0 0 0 0 0 0 0 0 0 0 0 0 0 0 0 0 0 0 0 0 0
Wind_Speed_500mb
50 55 58 54 46 41 42 42 34 30 30 30 27 22 21 17 18 17 19 23 21 18 16 17 22 23 27 28 25 21 18 18 21 27 29 32 37 40 40 33 18 22 25
50 49 48 49 45 44 44 50 45 36 33 30 25 20 26 25 22 20 17 20 26 21 12 14 20 22 22 29 35 33 27 28 28 34 36 39 42 42 32 36 30 32 29
52 50 49 45 46 49 48 48 48 46 45 42 39 34 27 29 28 28 24 24 25 26 24 20 13 15 18 22 30 35 39 39 39 43 45 48 49 50 38 36 29 28 25
38 37 48 50 54 54 49 44 49 49 46 42 41 40 39 37 34 34 35 34 30 30 27 29 26 26 23 21 20 19 21 30 39 45 49 55 55 49 45 37 39 43 50
55 42 45 55 54 55 52 50 46 44 43 42 39 37 35 37 37 34 35 37 36 33 31 30 31 34 34 30 27 30 30 30 28 32 34 36 36 34 35 42 49 53 52
60 54 43 35 27 29 45 52 50 45 44 44 45 42 38 38 38 35 35 36 35 31 31 28 27 31 36 36 39 34 35 39 45 46 40 43 42 40 41 44 48 51 53
32 29 36 39 21 21 37 27 27 34 42 42 46 46 45 44 41 41 42 45 43 43 46 48 48 44 40 39 38 41 43 43 42 45 50 49 51 44 44 45 42 45 52
27 16 20 18 26 29 35 31 29 36 47 45 46 48 49 45 40 43 44 46 50 54 57 56 53 52 51 48 49 51 51 49 50 52 56 60 60 57 57 56 55 56 61
28 28 25 20 11 11 24 36 44 45 45 40 34 36 34 35 37 40 47 52 53 52 52 55 58 61 63 61 60 64 67 67 62 61 65 68 66 64 60 61 61 64 73
19 17 17 20 15 11 9 6 1 5 6 13 19 20 27 35 41 44 45 48 51 53 53 55 56 61 63 61 65 67 72 71 66 62 56 53 52 51 48 50 52 62 68
8 8 9 12 12 10 8 5 4 5 4 2 8 3 5 14 22 29 29 29 32 45 49 52 54 58 58 59 62 67 69 65 62 62 64 62 60 58 56 56 54 54 57
12 13 13 12 13 12 8 7 6 4 3 8 12 9 4 12 12 19 19 24 29 33 36 38 46 51 57 62 66 66 61 62 62 60 64 68 67 67 63 62 63 64 62
15 17 18 18 19 17 15 12 12 12 10 8 6 7 9 14 22 28 30 29 29 32 35 40 41 43 46 51 48 48 55 59 71 81 82 82 81 79 78 77 75 72 73
8 5 8 10 13 18 16 15 16 16 14 16 18 20 25 28 28 27 29 32 32 34 36 37 38 44 49 55 58 54 53 54 57 57 65 75 73 72 73 71 77 78 78
7 9 6 2 6 10 16 19 17 15 18 20 23 26 31 34 33 33 39 40 41 44 48 47 45 42 45 49 52 50 51 52 51 54 57 55 56 55 57 54 56 60 62
2 5 9 11 11 8 5 7 15 22 28 32 36 41 40 36 44 46 46 43 43 47 54 57 59 54 53 52 52 54 51 50 47 46 47 54 57 64 64 57 59 59 60
6 7 11 13 14 15 17 18 17 10 13 17 22 30 40 52 57 58 56 55 55 58 63 66 67 67 64 57 54 51 51 47 45 44 43 43 48 54 51 55 60 64 67
7 12 14 17 19 21 24 28 32 35 36 33 29 31 33 38 45 54 62 65 65 62 65 64 63 60 59 58 49 48 51 50 46 47 44 49 50 51 54 59 63 66 74
6 12 17 19 22 26 28 32 35 39 43 46 46 40 43 46 48 51 50 52 61 65 61 58 55 57 57 54 58 56 54 54 53 43 39 37 35 40 54 59 62 67 66
8 11 13 18 22 26 30 35 39 44 50 55 58 60 62 63 64 63 62 63 65 66 67 72 72 74 70 69 68 68 72 72 63 60 60 54 59 54 61 65 54 64 61
11 11 10 17 23 29 34 38 43 48 54 59 61 61 61 66 70 71 71 71 73 74 75 77 79 82 86 83 84 82 79 81 84 81 75 74 69 71 69 70 72 73 60
12 13 13 16 23 30 37 42 48 53 58 64 66 67 65 65 66 67 69 72 73 76 80 80 81 79 78 73 74 91 94 91 92 93 82 78 82 74 71 70 72 72 72
10 17 19 17 24 33 39 44 50 55 59 64 66 67 67 66 68 68 69 70 73 76 77 76 81 80 84 81 77 86 93 105 98 93 96 94 90 91 83 79 75 73 71
17 20 26 24 30 35 39 43 49 52 55 61 63 63 65 67 68 69 68 69 72 75 77 75 76 75 80 86 88 92 100 101 109 109 104 106 106 102 100 92 85 82 74
32 26 29 28 33 37 41 42 49 55 57 63 66 66 68 71 71 70 68 67 71 74 76 73 76 79 78 84 91 93 97 99 103 103 111 113 113 109 106 105 95 89 84
37 34 33 32 35 40 42 43 47 50 54 58 64 63 68 72 70 69 69 68 70 70 70 69 72 72 73 74 77 87 92 94 92 88 87 97 105 109 108 105 99 86 85
Wind_Direction_500mb
214 211 214 217 222 223 224 222 219 231 239 247 249 249 226 219 203 214 224 229 229 225 244 253 238 239 245 254 263 272 287 290 287 286 299 304 302 308 318 321 311 314 328
218 213 214 212 220 226 227 219 226 230 237 246 243 239 236 234 226 218 226 239 242 251 256 265 239 250 259 264 268 270 277 280 292 292 296 297 299 309 316 326 323 325 328
221 221 223 225 229 233 236 230 229 233 237 242 248 251 258 240 243 245 248 252 257 262 249 251 257 255 261 269 273 269 268 277 289 293 293 294 298 307 308 317 323 327 327
221 232 227 226 229 232 229 234 236 240 243 248 250 253 252 251 254 254 256 262 265 264 259 255 261 264 271 275 278 293 285 277 281 289 287 286 292 297 301 308 307 313 318
226 239 236 229 226 234 236 233 229 235 237 244 248 252 254 249 253 257 259 265 263 260 261 265 272 269 271 271 278 287 293 291 290 300 303 302 301 307 303 303 308 312 312
217 229 244 249 229 226 235 239 240 235 233 235 235 238 245 252 256 255 258 262 264 263 268 273 278 279 274 276 264 267 274 283 291 294 298 299 301 306 308 309 309 311 315
195 208 229 238 251 265 245 237 244 253 247 246 250 246 243 247 245 252 254 256 260 263 270 271 271 272 273 276 277 275 274 275 279 288 287 288 294 302 306 306 309 304 302
120 152 206 235 234 257 262 270 266 270 255 246 246 249 253 251 256 258 258 259 261 260 262 267 272 272 272 273 274 276 276 274 272 276 280 285 289 293 294 296 298 296 296
123 123 132 134 167 226 243 253 253 256 261 254 244 244 255 261 266 263 263 263 263 261 261 261 267 269 272 275 277 278 280 280 282 282 283 285 287 289 290 291 289 291 292
133 130 127 131 152 167 161 162 248 5 287 278 274 272 261 259 268 274 269 268 268 269 268 263 264 267 268 267 268 270 272 275 282 284 280 277 280 283 286 283 284 282 287
157 162 169 177 195 198 172 142 103 87 75 94 122 68 298 256 271 278 283 287 283 270 271 272 271 269 271 272 269 269 271 275 274 274 274 275 276 279 281 283 283 282 284
273 267 248 240 244 249 242 198 200 182 101 52 74 70 30 347 327 343 320 296 294 292 288 283 281 273 271 272 271 268 272 275 274 274 276 276 278 282 286 290 290 287 285
271 267 261 259 256 260 259 242 227 230 230 240 238 234 270 296 316 322 320 317 310 301 295 294 298 300 302 300 302 293 287 283 279 276 276 274 278 282 284 286 288 289 289
332 281 255 252 243 237 242 239 247 258 260 271 281 285 285 287 291 293 302 302 299 299 299 297 295 290 292 294 295 296 293 292 291 291 285 279 280 282 285 283 282 284 286
32 54 68 140 231 241 249 255 255 273 280 282 291 298 301 300 301 302 299 295 293 295 295 297 299 299 295 294 294 296 299 292 298 291 286 284 285 285 286 292 292 291 284
47 41 30 19 11 3 314 252 275 273 272 274 274 277 275 281 281 283 284 286 287 288 290 295 298 302 303 306 306 305 303 305 300 293 295 285 287 282 280 282 292 290 284
63 41 18 9 5 360 354 344 329 321 302 286 281 275 275 276 274 278 281 282 283 286 290 294 296 298 298 298 302 306 308 309 308 312 302 297 295 290 285 282 281 280 279
38 34 24 19 15 10 5 0 354 346 340 338 331 319 301 289 285 284 283 282 283 283 286 289 294 294 291 294 294 302 301 301 299 301 301 299 297 293 291 288 291 284 285
76 46 34 30 27 21 15 9 4 359 353 345 337 329 323 313 308 306 302 297 290 286 285 284 283 286 287 285 284 287 289 292 291 291 293 295 300 305 294 291 286 295 295
41 33 25 19 15 12 10 6 1 358 354 351 347 342 335 325 321 317 312 307 303 295 291 286 283 282 281 283 283 283 284 280 279 281 279 279 281 287 288 292 305 288 294
21 0 356 12 10 9 7 4 360 357 353 350 346 342 336 328 324 320 316 311 307 302 297 289 285 282 280 277 280 280 280 281 282 281 281 282 282 281 280 284 293 289 292
12 13 6 6 7 7 4 2 358 354 352 349 345 342 337 330 324 319 315 312 307 303 299 292 286 284 281 276 281 277 275 276 278 281 282 283 284 282 283 284 285 291 281
327 348 356 346 357 358 356 357 354 350 350 348 345 341 336 331 327 322 316 313 310 306 300 294 290 287 281 275 276 277 280 275 273 274 276 277 284 286 285 285 286 286 284
268 312 336 336 330 337 344 346 345 345 347 349 348 342 335 331 327 323 319 316 313 308 303 298 295 290 282 279 279 278 277 279 278 271 271 274 277 280 282 283 283 281 278
252 282 320 325 323 326 331 332 336 340 343 346 348 344 340 335 331 328 325 321 315 310 305 300 297 296 289 281 279 278 279 279 278 276 270 269 271 274 277 279 279 278 275
251 265 297 304 310 314 319 322 330 335 339 344 345 341 338 334 330 329 328 326 322 317 312 308 303 295 288 284 279 277 277 278 278 275 272 267 266 268 271 273 273 270 269
Wind_Speed_850mb
50 55 58 54 46 41 42 42 34 30 30 30 27 22 21 17 18 17 19 23 21 18 16 17 22 23 27 28 25 21 18 18 21 27 29 32 37 40 40 33 18 22 25
50 49 48 49 45 44 44 50 45 36 33 30 25 20 26 25 22 20 17 20 26 21 12 14 20 22 22 29 35 33 27 28 28 34 36 39 42 42 32 36 30 32 29
52 50 49 45 46 49 48 48 48 46 45 42 39 34 27 29 28 28 24 24 25 26 24 20 13 15 18 22 30 35 39 39 39 43 45 48 49 50 38 36 29 28 25
38 37 48 50 54 54 49 44 49 49 46 42 41 40 39 37 34 34 35 34 30 30 27 29 26 26 23 21 20 19 21 30 39 45 49 55 55 49 45 37 39 43 50
55 42 45 55 54 55 52 50 46 44 43 42 39 37 35 37 37 34 35 37 36 33 31 30 31 34 34 30 27 30 30 30 28 32 34 36 36 34 35 42 49 53 52
60 54 43 35 27 29 45 52 50 45 44 44 45 42 38 38 38 35 35 36 35 31 31 28 27 31 36 36 39 34 35 39 45 46 40 43 42 40 41 44 48 51 53
32 29 36 39 21 21 37 27 27 34 42 42 46 46 45 44 41 41 42 45 43 43 46 48 48 44 40 39 38 41 43 43 42 45 50 49 51 44 44 45 42 45 52
27 16 20 18 26 29 35 31 29 36 47 45 46 48 49 45 40 43 44 46 50 54 57 56 53 52 51 48 49 51 51 49 50 52 56 60 60 57 57 56 55 56 61
28 28 25 20 11 11 24 36 44 45 45 40 34 36 34 35 37 40 47 52 53 52 52 55 58 61 63 61 60 64 67 67 62 61 65 68 66 64 60 61 61 64 73
19 17 17 20 15 11 9 6 1 5 6 13 19 20 27 35 41 44 45 48 51 53 53 55 56 61 63 61 65 67 72 71 66 62 56 53 52 51 48 50 52 62 68
8 8 9 12 12 10 8 5 4 5 4 2 8 3 5 14 22 29 29 29 32 45 49 52 54 58 58 59 62 67 69 65 62 62 64 62 60 58 56 56 54 54 57
12 13 13 12 13 12 8 7 6 4 3 8 12 9 4 12 12 19 19 24 29 33 36 38 46 51 57 62 66 66 61 62 62 60 64 68 67 67 63 62 63 64 62
15 17 18 18 19 17 15 12 12 12 10 8 6 7 9 14 22 28 30 29 29 32 35 40 41 43 46 51 48 48 55 59 71 81 82 82 81 79 78 77 75 72 73
8 5 8 10 13 18 16 15 16 16 14 16 18 20 25 28 28 27 29 32 32 34 36 37 38 44 49 55 58 54 53 54 57 57 65 75 73 72 73 71 77 78 78
7 9 6 2 6 10 16 19 17 15 18 20 23 26 31 34 33 33 39 40 41 44 48 47 45 42 45 49 52 50 51 52 51 54 57 55 56 55 57 54 56 60 62
2 5 9 11 11 8 5 7 15 22 28 32 36 41 40 36 44 46 46 43 43 47 54 57 59 54 53 52 52 54 51 50 47 46 47 54 57 64 64 57 59 59 60
6 7 11 13 14 15 17 18 17 10 13 17 22 30 40 52 57 58 56 55 55 58 63 66 67 67 64 57 54 51 51 47 45 44 43 43 48 54 51 55 60 64 67
7 12 14 17 19 21 24 28 32 35 36 33 29 31 33 38 45 54 62 65 65 62 65 64 63 60 59 58 49 48 51 50 46 47 44 49 50 51 54 59 63 66 74
6 12 17 19 22 26 28 32 35 39 43 46 46 40 43 46 48 51 50 52 61 65 61 58 55 57 57 54 58 56 54 54 53 43 39 37 35 40 54 59 62 67 66
8 11 13 18 22 26 30 35 39 44 50 55 58 60 62 63 64 63 62 63 65 66 67 72 72 74 70 69 68 68 72 72 63 60 60 54 59 54 61 65 54 64 61
11 11 10 17 23 29 34 38 43 48 54 59 61 61 61 66 70 71 71 71 73 74 75 77 79 82 86 83 84 82 79 81 84 81 75 74 69 71 69 70 72 73 60
12 13 13 16 23 30 37 42 48 53 58 64 66 67 65 65 66 67 69 72 73 76 80 80 81 79 78 73 74 91 94 91 92 93 82 78 82 74 71 70 72 72 72
10 17 19 17 24 33 39 44 50 55 59 64 66 67 67 66 68 68 69 70 73 76 77 76 81 80 84 81 77 86 93 105 98 93 96 94 90 91 83 79 75 73 71
17 20 26 24 30 35 39 43 49 52 55 61 63 63 65 67 68 69 68 69 72 75 77 75 76 75 80 86 88 92 100 101 109 109 104 106 106 102 100 92 85 82 74
32 26 29 28 33 37 41 42 49 55 57 63 66 66 68 71 71 70 68 67 71 74 76 73 76 79 78 84 91 93 97 99 103 103 111 113 113 109 106 105 95 89 84
37 34 33 32 35 40 42 43 47 50 54 58 64 63 68 72 70 69 69 68 70 70 70 69 72 72 73 74 77 87 92 94 92 88 87 97 105 109 108 105 99 86 85
Wind_Direction_850mb
214 211 214 217 222 223 224 222 219 231 239 247 249 249 226 219 203 214 224 229 229 225 244 253 238 239 245 254 263 272 287 290 287 286 299 304 302 308 318 321 311 314 328
218 213 214 212 220 226 227 219 226 230 237 246 243 239 236 234 226 218 226 239 242 251 256 265 239 250 259 264 268 270 277 280 292 292 296 297 299 309 316 326 323 325 328
221 221 223 225 229 233 236 230 229 233 237 242 248 251 258 240 243 245 248 252 257 262 249 251 257 255 261 269 273 269 268 277 289 293 293 294 298 307 308 317 323 327 327
221 232 227 226 229 232 229 234 236 240 243 248 250 253 252 251 254 254 256 262 265 264 259 255 261 264 271 275 278 293 285 277 281 289 287 286 292 297 301 308 307 313 318
226 239 236 229 226 234 236 233 229 235 237 244 248 252 254 249 253 257 259 265 263 260 261 265 272 269 271 271 278 287 293 291 290 300 303 302 301 307 303 303 308 312 312
217 229 244 249 229 226 235 239 240 235 233 235 235 238 245 252 256 255 258 262 264 263 268 273 278 279 274 276 264 267 274 283 291 294 298 299 301 306 308 309 309 311 315
195 208 229 238 251 265 245 237 244 253 247 246 250 246 243 247 245 252 254 256 260 263 270 271 271 272 273 276 277 275 274 275 279 288 287 288 294 302 306 306 309 304 302
120 152 206 235 234 257 262 270 266 270 255 246 246 249 253 251 256 258 258 259 261 260 262 267 272 272 272 273 274 276 276 274 272 276 280 285 289 293 294 296 298 296 296
123 123 132 134 167 226 243 253 253 256 261 254 244 244 255 261 266 263 263 263 263 261 261 261 267 269 272 275 277 278 280 280 282 282 283 285 287 289 290 291 289 291 292
133 130 127 131 152 167 161 162 248 5 287 278 274 272 261 259 268 274 269 268 268 269 268 263 264 267 268 267 268 270 272 275 282 284 280 277 280 283 286 283 284 282 287
157 162 169 177 195 198 172 142 103 87 75 94 122 68 298 256 271 278 283 287 283 270 271 272 271 269 271 272 269 269 271 275 274 274 274 275 276 279 281 283 283 282 284
273 267 248 240 244 249 242 198 200 182 101 52 74 70 30 347 327 343 320 296 294 292 288 283 281 273 271 272 271 268 272 275 274 274 276 276 278 282 286 290 290 287 285
271 267 261 259 256 260 259 242 227 230 230 240 238 234 270 296 316 322 320 317 310 301 295 294 298 300 302 300 302 293 287 283 279 276 276 274 278 282 284 286 288 289 289
332 281 255 252 243 237 242 239 247 258 260 271 281 285 285 287 291 293 302 302 299 299 299 297 295 290 292 294 295 296 293 292 291 291 285 279 280 282 285 283 282 284 286
32 54 68 140 231 241 249 255 255 273 280 282 291 298 301 300 301 302 299 295 293 295 295 297 299 299 295 294 294 296 299 292 298 291 286 284 285 285 286 292 292 291 284
47 41 30 19 11 3 314 252 275 273 272 274 274 277 275 281 281 283 284 286 287 288 290 295 298 302 303 306 306 305 303 305 300 293 295 285 287 282 280 282 292 290 284
63 41 18 9 5 360 354 344 329 321 302 286 281 275 275 276 274 278 281 282 283 286 290 294 296 298 298 298 302 306 308 309 308 312 302 297 295 290 285 282 281 280 279
38 34 24 19 15 10 5 0 354 346 340 338 331 319 301 289 285 284 283 282 283 283 286 289 294 294 291 294 294 302 301 301 299 301 301 299 297 293 291 288 291 284 285
76 46 34 30 27 21 15 9 4 359 353 345 337 329 323 313 308 306 302 297 290 286 285 284 283 286 287 285 284 287 289 292 291 291 293 295 300 305 294 291 286 295 295
41 33 25 19 15 12 10 6 1 358 354 351 347 342 335 325 321 317 312 307 303 295 291 286 283 282 281 283 283 283 284 280 279 281 279 279 281 287 288 292 305 288 294
21 0 356 12 10 9 7 4 360 357 353 350 346 342 336 328 324 320 316 311 307 302 297 289 285 282 280 277 280 280 280 281 282 281 281 282 282 281 280 284 293 289 292
12 13 6 6 7 7 4 2 358 354 352 349 345 342 337 330 324 319 315 312 307 303 299 292 286 284 281 276 281 277 275 276 278 281 282 283 284 282 283 284 285 291 281
327 348 356 346 357 358 356 357 354 350 350 348 345 341 336 331 327 322 316 313 310 306 300 294 290 287 281 275 276 277 280 275 273 274 276 277 284 286 285 285 286 286 284
268 312 336 336 330 337 344 346 345 345 347 349 348 342 335 331 327 323 319 316 313 308 303 298 295 290 282 279 279 278 277 279 278 271 271 274 277 280 282 283 283 281 278
252 282 320 325 323 326 331 332 336 340 343 346 348 344 340 335 331 328 325 321 315 310 305 300 297 296 289 281 279 278 279 279 278 276 270 269 271 274 277 279 279 278 275
251 265 297 304 310 314 319 322 330 335 339 344 345 341 338 334 330 329 328 326 322 317 312 308 303 295 288 284 279 277 277 278 278 275 272 267 266 268 271 273 273 270 269